QTR43A EBBR-OTHH

Flight info

Callsign QTR43A
Flight time N/A
Altitude 36999
Route ROUSY DCT GTQ DCT BEGAR DCT TRA DCT GAMSA DCT GEDSO DCT PODET DCT ZINPE DCT NASSY DCT OKLOP DCT ETIDA DCT ADORU DCT VESAR DCT NIKAS R785 BASEM/N0501F370 R785 RASLI P559 TRF R23 NEVOL N318 TAMRO T503 KSA N687 KINIB Z511 GISRA L681 ORLEK
Aircraft B77W/H-SDE1E2E3FGHIJ2J3J4J5M1RWXY/LB1D1

Departure

Time 2026-05-06 12:17
Airport Brussels Airport (EBBR)

Arrival

Time N/A
Airport Hamad International Airport (OTHH)
Time Latitude Longitude Altitude Speed Heading
2026-05-06 11:50 50.90201 4.49123 135 ft 0 kts 155°
2026-05-06 12:09 50.90207 4.49119 135 ft 2 kts 154°
2026-05-06 12:09 50.90222 4.49108 126 ft 2 kts 156°
2026-05-06 12:09 50.90236 4.49096 129 ft 2 kts 137°
2026-05-06 12:09 50.90246 4.49075 129 ft 2 kts 104°
2026-05-06 12:10 50.90247 4.49052 132 ft 1 kts 72°
2026-05-06 12:10 50.90247 4.49048 132 ft 0 kts 69°
2026-05-06 12:12 50.90248 4.49054 132 ft 4 kts 65°
2026-05-06 12:13 50.90285 4.49183 126 ft 17 kts 66°
2026-05-06 12:13 50.90334 4.49343 127 ft 15 kts 66°
2026-05-06 12:13 50.90378 4.49506 125 ft 16 kts 65°
2026-05-06 12:13 50.90389 4.49613 124 ft 7 kts 123°
2026-05-06 12:14 50.90317 4.49664 122 ft 19 kts 163°
2026-05-06 12:14 50.90169 4.49786 129 ft 20 kts 112°
2026-05-06 12:14 50.90208 4.49960 125 ft 20 kts 63°
2026-05-06 12:14 50.90304 4.50214 127 ft 32 kts 42°
2026-05-06 12:15 50.90501 4.50328 125 ft 30 kts 13°
2026-05-06 12:15 50.90705 4.50411 121 ft 30 kts 14°
2026-05-06 12:15 50.90902 4.50491 121 ft 25 kts 14°
2026-05-06 12:15 50.91071 4.50527 123 ft 25 kts 355°
2026-05-06 12:16 50.91221 4.50424 122 ft 22 kts 301°
2026-05-06 12:16 50.91231 4.50207 123 ft 12 kts 248°
2026-05-06 12:16 50.91229 4.50201 120 ft 0 kts 247°
2026-05-06 12:16 50.91228 4.50199 120 ft 2 kts 247°
2026-05-06 12:17 50.91181 4.50029 119 ft 48 kts 246°
2026-05-06 12:17 50.90897 4.49037 121 ft 151 kts 245°
2026-05-06 12:17 50.90337 4.47125 391 ft 217 kts 248°
2026-05-06 12:17 50.89663 4.44888 1628 ft 234 kts 242°
2026-05-06 12:18 50.88528 4.42938 2867 ft 254 kts 211°
2026-05-06 12:18 50.86813 4.42287 3972 ft 258 kts 173°
2026-05-06 12:18 50.85150 4.43277 4755 ft 259 kts 137°
2026-05-06 12:18 50.84105 4.45473 5554 ft 256 kts 116°
2026-05-06 12:19 50.83245 4.48026 6327 ft 262 kts 116°
2026-05-06 12:19 50.82342 4.50549 6969 ft 269 kts 121°
2026-05-06 12:19 50.81182 4.52960 7681 ft 277 kts 128°
2026-05-06 12:19 50.79907 4.55278 8495 ft 282 kts 130°
2026-05-06 12:20 50.78621 4.57572 9328 ft 285 kts 130°
2026-05-06 12:20 50.77296 4.59943 10121 ft 288 kts 130°
2026-05-06 12:20 50.75954 4.62353 10657 ft 303 kts 130°
2026-05-06 12:20 50.74501 4.64968 10868 ft 329 kts 130°
2026-05-06 12:21 50.72931 4.67792 11050 ft 355 kts 130°
2026-05-06 12:21 50.71255 4.70823 11423 ft 373 kts 129°
2026-05-06 12:21 50.69756 4.74184 12230 ft 373 kts 121°
2026-05-06 12:21 50.68189 4.77498 12993 ft 380 kts 133°
2026-05-06 12:22 50.66201 4.80269 13891 ft 384 kts 144°
2026-05-06 12:22 50.64743 4.81828 14385 ft 386 kts 146°
2026-05-06 12:22 50.61791 4.85029 15532 ft 390 kts 145°
2026-05-06 12:22 50.59571 4.87501 16461 ft 391 kts 145°
2026-05-06 12:23 50.57344 4.90011 17298 ft 399 kts 145°
2026-05-06 12:23 50.55060 4.92597 17876 ft 409 kts 145°
2026-05-06 12:23 50.52732 4.95239 18566 ft 414 kts 145°
2026-05-06 12:23 50.51179 4.97003 18982 ft 418 kts 145°
2026-05-06 12:24 50.48810 4.99692 19722 ft 420 kts 144°
2026-05-06 12:24 50.46432 5.02389 20477 ft 423 kts 144°
2026-05-06 12:24 50.44043 5.05095 21155 ft 426 kts 144°
2026-05-06 12:24 50.40846 5.08709 22041 ft 432 kts 144°
2026-05-06 12:25 50.38376 5.11498 22607 ft 438 kts 144°
2026-05-06 12:25 50.36017 5.14157 23182 ft 443 kts 144°
2026-05-06 12:25 50.33501 5.16989 23702 ft 448 kts 144°
2026-05-06 12:25 50.30968 5.19838 24245 ft 450 kts 144°
2026-05-06 12:26 50.29281 5.21732 24632 ft 451 kts 144°
2026-05-06 12:26 50.26726 5.24598 25238 ft 452 kts 144°
2026-05-06 12:26 50.23329 5.28402 25980 ft 454 kts 144°
2026-05-06 12:26 50.20751 5.31286 26429 ft 458 kts 144°
2026-05-06 12:27 50.18161 5.34178 27002 ft 458 kts 144°
2026-05-06 12:27 50.16443 5.36094 27341 ft 460 kts 144°
2026-05-06 12:27 50.13781 5.39059 27695 ft 465 kts 144°
2026-05-06 12:27 50.11193 5.41940 28273 ft 464 kts 144°
2026-05-06 12:28 50.08557 5.44868 28639 ft 468 kts 144°
2026-05-06 12:28 50.05894 5.47823 28935 ft 472 kts 144°
2026-05-06 12:28 50.03215 5.50791 29362 ft 473 kts 144°
2026-05-06 12:28 50.00514 5.53781 29643 ft 478 kts 144°
2026-05-06 12:29 49.97790 5.56790 29882 ft 481 kts 144°
2026-05-06 12:29 49.95071 5.59790 30262 ft 481 kts 144°
2026-05-06 12:29 49.92330 5.62809 30452 ft 485 kts 145°
2026-05-06 12:29 49.89602 5.65809 30660 ft 487 kts 145°
2026-05-06 12:30 49.86849 5.68833 30965 ft 487 kts 146°
2026-05-06 12:30 49.84079 5.71873 31097 ft 490 kts 146°
2026-05-06 12:30 49.81287 5.74930 31283 ft 493 kts 146°
2026-05-06 12:30 49.78478 5.78002 31462 ft 494 kts 146°
2026-05-06 12:31 49.75665 5.81076 31664 ft 495 kts 146°
2026-05-06 12:31 49.72853 5.84144 31869 ft 496 kts 146°
2026-05-06 12:31 49.70030 5.87220 32049 ft 496 kts 146°
2026-05-06 12:31 49.67208 5.90289 32298 ft 496 kts 147°
2026-05-06 12:32 49.64432 5.93305 32585 ft 494 kts 147°
2026-05-06 12:32 49.61625 5.96349 32870 ft 493 kts 147°
2026-05-06 12:32 49.58825 5.99383 33155 ft 491 kts 147°
2026-05-06 12:32 49.56034 6.02402 33428 ft 490 kts 147°
2026-05-06 12:33 49.53241 6.05419 33707 ft 489 kts 147°
2026-05-06 12:33 49.50454 6.08425 33937 ft 489 kts 147°
2026-05-06 12:33 49.47673 6.11436 34104 ft 489 kts 146°
2026-05-06 12:33 49.45019 6.14604 34269 ft 490 kts 143°
2026-05-06 12:34 49.42383 6.17880 34476 ft 488 kts 143°
2026-05-06 12:34 49.40690 6.19996 34639 ft 487 kts 143°
2026-05-06 12:34 49.36153 6.25653 34769 ft 488 kts 143°
2026-05-06 12:35 49.30891 6.32165 34794 ft 483 kts 143°
2026-05-06 12:35 49.25695 6.38557 34813 ft 482 kts 143°
2026-05-06 12:36 49.20478 6.44952 34812 ft 481 kts 143°
2026-05-06 12:36 49.15245 6.51351 34817 ft 481 kts 143°
2026-05-06 12:37 49.10038 6.57703 34819 ft 482 kts 143°
2026-05-06 12:37 49.04781 6.64102 34815 ft 484 kts 143°
2026-05-06 12:38 48.99521 6.70421 34804 ft 484 kts 146°
2026-05-06 12:38 48.93790 6.75701 34805 ft 482 kts 154°
2026-05-06 12:39 48.87861 6.80473 34801 ft 482 kts 154°
2026-05-06 12:39 48.81977 6.85236 34802 ft 483 kts 154°
2026-05-06 12:40 48.76053 6.90064 34801 ft 483 kts 154°
2026-05-06 12:40 48.70128 6.94894 34802 ft 484 kts 154°
2026-05-06 12:41 48.64198 6.99715 34801 ft 484 kts 154°
2026-05-06 12:41 48.58265 7.04523 34803 ft 484 kts 154°
2026-05-06 12:42 48.52367 7.09289 34805 ft 484 kts 154°
2026-05-06 12:42 48.46438 7.14066 34807 ft 483 kts 154°
2026-05-06 12:43 48.40498 7.18841 34812 ft 483 kts 155°
2026-05-06 12:43 48.34574 7.23590 34812 ft 482 kts 155°
2026-05-06 12:44 48.28693 7.28292 34819 ft 482 kts 155°
2026-05-06 12:44 48.22788 7.33002 34840 ft 481 kts 155°
2026-05-06 12:45 48.16868 7.37709 34840 ft 481 kts 155°
2026-05-06 12:46 48.08005 7.44737 34832 ft 479 kts 156°
2026-05-06 12:46 48.02160 7.49356 34825 ft 478 kts 156°